Home   Weather   Schwäbisch Hall   Past weeks

Flag for Germany Past Weather in Schwäbisch Hall, Baden-Württemberg, Germany — Yesterday and Last 2 Weeks

Now
50 °F

Partly sunny.


Feels Like: 49 °F
Forecast: 40 / 56 °F
Wind: 3 mph from South

Location: Niederstetten

Current Time: Apr 24, 2017 at 1:28:00 pm

Latest Report: Apr 24, 2017 at 12:20 pm


Visibility: N/A

Pressure: 30.04 "Hg

Humidity: 43%

Dew Point: 28 °F

Location of Schwäbisch HallLocation

Past Weather in Schwäbisch Hall — Graph

°F

Schwäbisch Hall Temperature Yesterday

Maximum temperature yesterday: 46 °F (at 7:20 pm)
Minimum temperature yesterday: 34 °F (at 5:20 am)
Average temperature yesterday: 40 °F

High & Low Weather Summary for the Past Weeks

 TemperatureHumidityPressure
High70 °F (Apr 10, 4:20 pm)100% (Apr 17, 8:20 am)30.54 "Hg (Apr 17, 8:20 am)
Low27 °F (Apr 20, 5:20 am)32% (Apr 9, 5:20 pm)29.89 "Hg (Apr 12, 7:20 pm)
Average44 °F65%30.15 "Hg
* Reported Apr 9 12:20 pm — Apr 24 12:20 pm, Schwäbisch Hall, Weather by CustomWeather, © 2017

Note: Actual official high and low records may vary slightly from our data, if they occured in-between our weather recording intervals... More about our weather records

Advertising

Schwäbisch Hall Weather History for the Previous 24 Hours

Scroll right to see more
 ConditionsComfort  
Time TempWeatherWind HumidityBarometerVisibility
12:20 pm
Mon, Apr 24
50 °FPartly sunny.3 mph43%30.04 "HgN/A
11:20 am48 °FScattered clouds.6 mph43%30.04 "HgN/A
10:20 am46 °FPassing clouds.9 mph46%30.07 "HgN/A
9:20 am45 °FPassing clouds.7 mph46%30.07 "HgN/A
8:20 am39 °FScattered clouds.5 mph61%30.09 "HgN/A
7:20 am34 °FPassing clouds.2 mph70%30.09 "HgN/A
6:20 am30 °FPassing clouds.3 mph86%30.09 "HgN/A
5:20 am30 °FPassing clouds.3 mph80%30.12 "HgN/A
4:20 am32 °FChilly.2 mph75%30.12 "HgN/A
3:20 am32 °FChilly.2 mph75%30.15 "HgN/A
2:20 am32 °FPassing clouds.1 mph75%30.18 "HgN/A
1:20 am34 °FPassing clouds.2 mph70%30.18 "HgN/A
12:20 am36 °FPassing clouds.1 mph70%30.21 "HgN/A
11:20 pm
Sun, Apr 23
36 °FPassing clouds.2 mph70%30.21 "HgN/A
10:20 pm36 °FPartly cloudy.2 mph65%30.21 "HgN/A
9:20 pm39 °FPartly cloudy.2 mph56%30.21 "HgN/A
8:20 pm43 °FBroken clouds.2 mph49%30.21 "HgN/A
7:20 pm46 °FBroken clouds.6 mph43%30.21 "HgN/A
6:20 pm45 °FBroken clouds.6 mph42%30.21 "HgN/A
5:20 pm45 °FPartly sunny.5 mph46%30.21 "HgN/A
4:20 pm45 °FBroken clouds.7 mph49%30.21 "HgN/A
3:20 pm43 °FBroken clouds.6 mph49%30.21 "HgN/A
2:20 pm43 °FBroken clouds.8 mph49%30.21 "HgN/A
1:20 pm41 °FBroken clouds.9 mph49%30.21 "HgN/A
Weather by CustomWeather, © 2017

See weather overviewHow to use our weather pages